Regional Weather Roundup
Issued by NWS

Home | Current Version | Previous Version | Text Only | Print | Product List | Glossary On
Versions: 1 2 3 4 5 6 7 8 9 10 11 12 13 14 15 16 17 18 19 20 21 22 23 24 25 26 27 28 29 30 31 32 33 34 35 36 37 38 39 40 41 42 43 44 45 46 47 48 49 50
000
ASUS43 KOAX 190810
RWRNE

WEATHER ROUNDUP FOR NEBRASKA
NATIONAL WEATHER SERVICE OMAHA NE
300 AM CDT SUN APR 19 2015

NOTES: SATELLITE DATA IS BEING USED TO AUGMENT CLOUD COVER ABOVE
       12000 FEET.
       "FAIR" INDICATES FEW OR NO CLOUDS BELOW 12,000 FEET WITH NO
       SIGNIFICANT WEATHER AND/OR OBSTRUCTIONS TO VISIBILITY.

  * THESE STATIONS DO NOT REPORT WEATHER SUCH AS RAIN...SNOW OR FOG.

NEZ001>004-019>022-054>056-190900-
NEBRASKA PANHANDLE

CITY           SKY/WX    TMP DP  RH WIND       PRES   REMARKS
SCOTTSBLUFF    CLOUDY    46  32  58 N17       30.01R
ALLIANCE       CLOUDY    43  38  82 N30G37    29.97R
CHADRON        CLOUDY    45  37  73 N10       30.02R
KIMBALL        LGT RAIN  42  39  90 N23G29    29.97S
SIDNEY         CLOUDY    43  39  86 N30G43    29.95R
$$

NEZ057>060-069>072-079>082-190900-
SOUTHWEST NEBRASKA

CITY           SKY/WX    TMP DP  RH WIND       PRES   REMARKS
NORTH PLATTE   LGT RAIN  49  46  90 W7        29.85S
IMPERIAL       LGT RAIN  47  44  90 N13       29.88S
LEXINGTON      CLOUDY    52  49  89 NW7       29.82F
MCCOOK         CLOUDY    51  47  86 N14       29.83S
OGALLALA       CLOUDY    48  44  87 N12       29.89S
$$

NEZ005>010-023>029-035>040-094-190900-
NORTH CENTRAL NEBRASKA

CITY           SKY/WX    TMP DP  RH WIND       PRES   REMARKS
VALENTINE      CLOUDY    47  44  90 N13       29.88R
AINSWORTH      CLOUDY    49  46  91 NW17      29.86R
BROKEN BOW     CLOUDY    52  48  86 N20       29.80S
O`NEILL        CLOUDY    53  51  92 NW14G20   29.82S
ORD            CLOUDY    52  48  86 NW14      29.79F
THEDFORD       CLOUDY    49  47  90 NW8       29.88R
$$

NEZ041-046>049-061>064-073>077-083>087-190900-
SOUTH CENTRAL NEBRASKA

CITY           SKY/WX    TMP DP  RH WIND       PRES   REMARKS
GRAND ISLAND   LGT RAIN  52  47  83 N7        29.80F
AURORA         RAIN      53  50  89 NW13      29.77F
HASTINGS       LGT RAIN  53  48  83 N9        29.78R
HEBRON         CLOUDY    51  49  92 CALM      29.76S
HOLDREGE       CLOUDY    52  47  84 N7        29.79F
KEARNEY *      CLOUDY    52  46  82 N6        29.80F
YORK           CLOUDY    54  50  87 W8        29.78F
$$

NEZ011>018-030>034-042>045-190900-
NORTHEAST NEBRASKA

CITY           SKY/WX    TMP DP  RH WIND       PRES   REMARKS
ALBION         CLOUDY    53  47  80 NW9       29.79S
BLAIR          CLOUDY    56  55  94 S5        29.77F FOG
COLUMBUS *     CLOUDY    55  45  67 W6        29.78F
FREMONT        FOG       56  55  96 CALM      29.76F VSB 3/4
TEKAMAH        CLOUDY    55  54  96 S8        29.77F FOG
WAYNE          MOCLDY    53  53  97 CALM      29.75F FOG
$$

NEZ050>053-065>068-078-088>093-190900-
SOUTHEAST NEBRASKA

CITY           SKY/WX    TMP DP  RH WIND       PRES   REMARKS
LINCOLN        CLOUDY    54  51  90 N5        29.76F
OMAHA EPPLEY   CLOUDY    57  56  96 S5        29.77F
BEATRICE       CLOUDY    53  52  96 CALM      29.75F
FALLS CITY     MOCLDY    54  53  97 S7        29.75F
NEBRASKA CITY  FOG       56  56 100 E3        29.75F VSB 1/2
PLATTSMOUTH    FOG       56  54  95 CALM      29.76F VSB 1/4
$$

NEZ044-045-051>053-067-190900-
OMAHA AREA

CITY           SKY/WX    TMP DP  RH WIND       PRES   REMARKS
OMAHA EPPLEY   CLOUDY    57  56  96 S5        29.77F
BLAIR          CLOUDY    56  55  94 S5        29.77F FOG
FREMONT        FOG       56  55  96 CALM      29.76F VSB 3/4
MILLARD        CLOUDY    58  56  94 CALM      29.76F
OFFUTT AFB     CLOUDY    56  56  99 N1        29.76F FOG
PLATTSMOUTH    FOG       56  54  95 CALM      29.76F VSB 1/4
WAHOO          FOG       54  52  92 CALM      29.77F VSB 1/4
$$



USA.gov is the U.S. government's official web portal to all federal, state and local government web resources and services.